Weather History for McGrath, AK

Change the Weather History Date:

Saturday, May 18, 2013

  Actual Average Record
Temperature  
Mean Temperature 25 °F 48 °F  
Max Temperature 34 °F 58 °F 75 °F (2002)
Min Temperature 15 °F 37 °F 15 °F (2013)
Degree Days  
Heating Degree Days 40 17  
Month to date heating degree days 568 375  
Since 1 July heating degree days 14186 13329  
Cooling Degree Days 0    
Month to date cooling degree days 0  
Year to date cooling degree days 0  
Moisture  
Dew Point 7 °F    
Average Humidity 42    
Maximum Humidity 65    
Minimum Humidity 18    
Precipitation  
Precipitation 0.00 in 0.04 in 0.74 in (2005)
Month to date precipitation 0.07 0.58  
Year to date precipitation 3.86 4.16  
Snow  
Snow 0.00 in 0.10 in 0.10 in (1985)
Month to date snowfall 0.7 0.8  
Since 1 July snowfall 75.0 97.2  
Snow Depth 0.00 in    
Sea Level Pressure  
Sea Level Pressure 30.10 in    
Wind  
Wind Speed 5 mph (WNW)    
Max Wind Speed 330 mph    
Max Gust Speed 20 mph    
Visibility 10 miles    
Events      
T = Trace of Precipitation, MM = Missing Value Source: NWS Daily Summary

Daily Weather History Graph

Daily Weather History Graph

Search for Another Location

Airport:

Trip Planner

Search our weather history database for the weather conditions in past years. The results will help you decide how hot, cold, wet, or windy it might be!

Date:

Astronomy

May. 18, 2013 Rise Set
Actual Time 5:10 AM AKDT 11:29 PM AKDT
Civil Twilight 3:36 AM AKDT 1:06 AM AKDT
Nautical Twilight Sun does not rise Sun does not rise
Astronomical Twilight Sun does not rise Sun does not rise
Moon 2:28 PM AKDT (5/18) 3:31 AM AKDT (5/18)
Length of Visible Light 21h 30m
Length of Day
18h 19m
First Quarter, 56% of the Moon is Illuminated
May 18
First Quarter
May 24
Full
May 31
Last Quarter
Jun 8
New
Jun 16
First Quarter

Hourly Weather History & Observations

Time (AKDT) Temp. Windchill Dew Point Humidity Pressure Visibility Wind Dir Wind Speed Gust Speed Precip Events Conditions
12:53 AM 23.0 °F 13.1 °F 3.9 °F 44% 29.91 in 10.0 mi NW 9.2 mph - N/A   Mostly Cloudy
1:53 AM 21.0 °F 14.6 °F 6.1 °F 53% 29.94 in 10.0 mi NW 4.6 mph - N/A   Partly Cloudy
2:53 AM 18.0 °F - 7.0 °F 62% 29.97 in 10.0 mi Calm Calm - N/A   Partly Cloudy
3:53 AM 17.1 °F - 7.0 °F 65% 29.99 in 10.0 mi Calm Calm - N/A   Partly Cloudy
4:53 AM 16.0 °F - 6.1 °F 65% 30.01 in 10.0 mi Calm Calm - N/A   Partly Cloudy
5:53 AM 17.1 °F - 6.1 °F 62% 30.02 in 10.0 mi Calm Calm - N/A   Clear
6:53 AM 19.0 °F 13.9 °F 7.0 °F 59% 30.04 in 10.0 mi WNW 3.5 mph - N/A   Clear
7:53 AM 21.0 °F 14.6 °F 7.0 °F 55% 30.05 in 10.0 mi NW 4.6 mph - N/A   Partly Cloudy
8:53 AM 24.1 °F 17.0 °F 6.1 °F 46% 30.06 in 10.0 mi WNW 5.8 mph - N/A   Partly Cloudy
9:53 AM 25.0 °F 16.3 °F 7.0 °F 46% 30.07 in 10.0 mi West 8.1 mph 16.1 mph N/A   Scattered Clouds
10:53 AM 26.1 °F 18.4 °F 6.1 °F 43% 30.08 in 10.0 mi WNW 6.9 mph - N/A   Scattered Clouds
11:53 AM 28.0 °F 20.0 °F 5.0 °F 38% 30.08 in 10.0 mi WNW 8.1 mph - N/A   Scattered Clouds
12:53 PM 28.9 °F 22.8 °F 6.1 °F 38% 30.09 in 10.0 mi Variable 5.8 mph - N/A   Scattered Clouds
1:53 PM 30.9 °F 24.3 °F 6.1 °F 35% 30.10 in 10.0 mi Variable 6.9 mph - N/A   Scattered Clouds
2:53 PM 33.1 °F 26.1 °F 7.0 °F 34% 30.11 in 10.0 mi WNW 8.1 mph 17.3 mph N/A   Scattered Clouds
3:53 PM 34.0 °F - 6.1 °F 31% 30.13 in 10.0 mi Calm Calm - N/A   Scattered Clouds
4:53 PM 34.0 °F 28.8 °F 5.0 °F 30% 30.14 in 10.0 mi Variable 5.8 mph - N/A   Scattered Clouds
5:53 PM 35.1 °F 30.1 °F 7.0 °F 31% 30.16 in 10.0 mi Variable 5.8 mph - N/A   Clear
6:53 PM 35.1 °F 27.9 °F 7.0 °F 31% 30.18 in 10.0 mi WNW 9.2 mph - N/A   Clear
7:53 PM 35.1 °F 29.3 °F 7.0 °F 31% 30.21 in 10.0 mi WNW 6.9 mph - N/A   Clear
8:53 PM 34.0 °F 27.2 °F 6.1 °F 31% 30.23 in 10.0 mi West 8.1 mph - N/A   Clear
9:53 PM 33.1 °F 27.7 °F 7.0 °F 34% 30.26 in 10.0 mi NW 5.8 mph - N/A   Clear
10:53 PM 30.9 °F 27.5 °F 9.0 °F 40% 30.29 in 10.0 mi WNW 3.5 mph - N/A   Clear
11:53 PM 28.9 °F - 12.0 °F 49% 30.31 in 10.0 mi Calm Calm - N/A   Clear